Ketchikan, AK

7:47 PM AKDT on August 18, 2018 (GMT -0800)
Ketchikan International

Weather History for PAKT - February, 2018

Change the Weather History Date:

Thursday, February 8, 2018

  Actual Average Record
Temperature  
Mean Temperature 36 °F -  
Max Temperature 37 °F 41 °F 63 °F (1963)
Min Temperature 35 °F 31 °F 12 °F (2017)
Degree Days  
Heating Degree Days 29    
Moisture  
Dew Point 30 °F    
Average Humidity 77    
Maximum Humidity 87    
Minimum Humidity 62    
Precipitation  
Precipitation 0.00 in - - ()
Sea Level Pressure  
Sea Level Pressure 30.29 in    
Wind  
Wind Speed 9 mph (WNW)    
Max Wind Speed 12 mph    
Max Gust Speed -    
Visibility 10 miles    
Events Snow    
Averages and records for this station are not official NWS values.
T = Trace of Precipitation, MM = Missing Value Source: NWS Daily Summary

Daily Weather History Graph

Daily Weather History Graph

Search for Another Location

Airport or City:

Astronomy

Feb. 08, 2018 Rise Set
Actual Time 7:24 AM AKST 4:38 PM AKST
Civil Twilight 6:45 AM AKST 5:17 PM AKST
Nautical Twilight 6:02 AM AKST 6:00 PM AKST
Astronomical Twilight 5:20 AM AKST 6:43 PM AKST
Moon 1:53 AM AKST (2/8) 11:01 AM AKST (2/8)
Length of Visible Light 10h 31m
Length of Day
9h 13m
Last Quarter, 39% of the Moon is Illuminated
Feb 8
Last Quarter
Feb 15
New
Feb 22
First Quarter
Mar 1
Full
Mar 9
Last Quarter

Hourly Weather History & Observations

Time (AKST) Temp. Windchill Dew Point Humidity Pressure Visibility Wind Dir Wind Speed Gust Speed Precip Events Conditions
12:16 AM 36.0 °F 28.5 °F 32.0 °F 86% 30.02 in 10.0 mi WNW 10.4 mph - N/A   Overcast
12:53 AM 36.0 °F 29.6 °F 30.9 °F 82% 30.04 in 10.0 mi WNW 8.1 mph - N/A   Overcast
1:53 AM 35.1 °F 27.4 °F 30.9 °F 85% 30.06 in 10.0 mi NW 10.4 mph - N/A   Overcast
2:53 AM 36.0 °F 29.0 °F 30.9 °F 82% 30.09 in 10.0 mi WNW 9.2 mph - N/A   Overcast
3:53 AM 35.1 °F 28.6 °F 30.9 °F 85% 30.12 in 6.0 mi NW 8.1 mph - 0.00 in Snow Light Snow
4:06 AM 35.1 °F 29.3 °F 30.9 °F 85% 30.12 in 5.0 mi NW 6.9 mph - 0.00 in Snow Light Snow
4:32 AM 35.1 °F 27.9 °F 30.9 °F 85% 30.13 in 9.0 mi WNW 9.2 mph - 0.00 in   Overcast
4:53 AM 35.1 °F 26.9 °F 30.9 °F 85% 30.14 in 10.0 mi WNW 11.5 mph - 0.00 in   Overcast
5:53 AM 35.1 °F 28.6 °F 30.9 °F 85% 30.17 in 10.0 mi NW 8.1 mph - N/A   Overcast
6:53 AM 35.1 °F 27.4 °F 30.9 °F 85% 30.20 in 10.0 mi NW 10.4 mph - N/A   Overcast
7:53 AM 35.6 °F 29.2 °F 30.2 °F 81% 30.24 in 10.0 mi NW 8.1 mph - N/A   Overcast
8:53 AM 35.6 °F 28.6 °F 30.2 °F 81% 30.27 in 10.0 mi NW 9.2 mph - N/A   Overcast
9:53 AM 35.6 °F 28.6 °F 32.0 °F 87% 30.30 in 10.0 mi West 9.2 mph - N/A   Overcast
10:53 AM 37.4 °F 29.8 °F 32.0 °F 81% 30.32 in 10.0 mi West 11.5 mph - N/A   Mostly Cloudy
11:53 AM 37.4 °F 30.8 °F 30.2 °F 75% 30.34 in 10.0 mi West 9.2 mph - N/A   Mostly Cloudy
12:53 PM 37.4 °F 30.8 °F 30.2 °F 75% 30.35 in 10.0 mi West 9.2 mph - N/A   Overcast
1:53 PM 37.4 °F 30.3 °F 30.2 °F 75% 30.37 in 10.0 mi West 10.4 mph - N/A   Mostly Cloudy
2:53 PM 37.4 °F 30.8 °F 30.2 °F 75% 30.38 in 10.0 mi West 9.2 mph - N/A   Overcast
3:53 PM 37.4 °F 32.8 °F 28.4 °F 70% 30.39 in 10.0 mi WNW 5.8 mph - N/A   Overcast
4:53 PM 37.4 °F 32.1 °F 28.4 °F 70% 30.40 in 10.0 mi WNW 6.9 mph - N/A   Overcast
5:53 PM 37.4 °F 32.1 °F 28.4 °F 70% 30.41 in 10.0 mi WNW 6.9 mph - N/A   Overcast
6:53 PM 37.4 °F 32.8 °F 26.6 °F 65% 30.41 in 10.0 mi WNW 5.8 mph - N/A   Overcast
7:53 PM 35.6 °F 29.9 °F 30.2 °F 81% 30.43 in 10.0 mi NW 6.9 mph - N/A   Overcast
8:53 PM 35.6 °F 29.9 °F 26.6 °F 70% 30.45 in 10.0 mi NW 6.9 mph - N/A   Overcast
9:53 PM 36.0 °F 31.1 °F 25.0 °F 64% 30.47 in 10.0 mi NW 5.8 mph - N/A   Overcast
10:53 PM 35.1 °F 30.1 °F 27.0 °F 72% 30.47 in 10.0 mi NNW 5.8 mph - N/A   Overcast
11:03 PM 36.0 °F 29.6 °F 27.0 °F 70% 30.47 in 10.0 mi NNW 8.1 mph - N/A   Overcast
11:53 PM 36.0 °F 29.6 °F 24.1 °F 62% 30.48 in 10.0 mi WNW 8.1 mph - 0.00 in   Overcast